This is the latest recevied weather packets stored in our database for station/object OH6HPS. If no packets are shown the sender has not sent any weather packets the latest 10 day(s).
| Time | Temp. | Humidity | Pressure | Rain* | Wind** | Luminosity | Snow |
|---|---|---|---|---|---|---|---|
| 1777899264 | 12.78° C | 76% | 1001.4 hPa | 0 mm | - | 204 W/m² | - |
| 1777898663 | 12.78° C | 75% | 1001.5 hPa | 0 mm | - | 257 W/m² | - |
| 1777898063 | 12.78° C | 75% | 1001.5 hPa | 0 mm | - | 466 W/m² | - |
| 1777897462 | 12.22° C | 79% | 1001.5 hPa | 0 mm | - | 825 W/m² | - |
| 1777896862 | 11.67° C | 80% | 1001.6 hPa | 0 mm | - | 424 W/m² | - |
| 1777896262 | 11.11° C | 80% | 1001.7 hPa | 0 mm | - | 311 W/m² | - |
| 1777895662 | 11.11° C | 82% | 1001.8 hPa | 0 mm | - | 410 W/m² | - |
| 1777895062 | 10.56° C | 81% | 1001.8 hPa | 0 mm | - | 972 W/m² | - |
| 1777894462 | 10.56° C | 81% | 1001.8 hPa | 0 mm | - | 378 W/m² | - |
| 1777893863 | 10.56° C | 81% | 1001.8 hPa | 0 mm | - | 287 W/m² | - |
| 1777893542 | 10° C | 82% | 1001.8 hPa | 0 mm | - | 297 W/m² | - |
| 1777892941 | 10° C | 82% | 1002 hPa | 0 mm | - | 331 W/m² | - |
| 1777892341 | 9.44° C | 84% | 1002 hPa | 0.25 mm | - | 387 W/m² | - |
| 1777891739 | 9.44° C | 82% | 1002.2 hPa | 0.25 mm | - | 366 W/m² | - |
| 1777891141 | 8.89° C | 85% | 1002.3 hPa | 0.25 mm | - | 359 W/m² | - |
| 1777890539 | 8.33° C | 82% | 1002.4 hPa | 0.25 mm | - | 334 W/m² | - |
| 1777889936 | 8.33° C | 83% | 1002.6 hPa | 0.51 mm | - | 225 W/m² | - |
| 1777889334 | 8.33° C | 82% | 1002.7 hPa | 0.51 mm | - | 206 W/m² | - |
| 1777888723 | 8.33° C | 84% | 1002.8 hPa | 0.25 mm | - | 155 W/m² | - |
| 1777888119 | 8.33° C | 81% | 1003 hPa | 0.25 mm | - | 179 W/m² | - |
| 1777887518 | 8.33° C | 81% | 1003.1 hPa | 0.25 mm | - | 204 W/m² | - |
| 1777886917 | 7.78° C | 82% | 1003.2 hPa | 0.51 mm | - | 211 W/m² | - |
| 1777886318 | 7.78° C | 83% | 1003.3 hPa | 0.76 mm | - | 181 W/m² | - |
| 1777885716 | 7.78° C | 82% | 1003.4 hPa | 1.02 mm | - | 185 W/m² | - |
| 1777885120 | 7.78° C | 81% | 1003.6 hPa | 0 mm | - | 185 W/m² | - |
* Rain latest hour (hover to see other rain measurements)
** Current wind speed in m/s (hover to see current wind gust speed)